STARLINK-32695, 62866

Orbit data source: Space-Track

STARLINK-32695, 62866 is a payload satellite owned by SpaceX/Seattle (US) in LEO that was launched on Sat, 01 Feb 2025 UTC via an FALCON 9 launch vehicle from the Air Force Western Test Range (AFWTR). Payload-class satellites include a variety of spacecraft equipped with specific instruments for various scientific and technological missions. These include communications satellites like Starlink; space stations such as the ISS; scientific satellites like the Hubble; Earth observation satellites from companies like Planet Labs, Umbra, and HawkEye 360; GPS; miniature CubeSats for education and research; and military/defense satellites.

Loading next visibility...
Identifier
62866, 2025-022N
Orbit
LEO
Last TLE update
13 hours ago
Origin
Manufacturer
SpaceX/Seattle
Mission
Operational Commercial Communications
Bus & Motor
STARLINK V2M, Unknown motor
Mass
730 kg wet, ~700 kg dry
Launch date (UTC)
2025-02-01 (5 months ago)
Launch vehicle
FALCON 9
Launch site
Air Force Western Test Range (AFWTR)
Object type
Payload
Rocket body
Debris
Shape & HBR
Box + 2 Pan, 29 m
Radar Cross Section
33.884 m², Large (>1 m²)

Expand to show TLE details & history

TLE from 13 hours ago
0 STARLINK-32695
1 62866U 25022N   25181.82542511  .00020177  00000-0  51284-3 0  9994
2 62866  53.1578 219.8495 0001100  93.0917 267.0213 15.39633756 23338
Epoch: 2025-06-30T19:48Z
TLE epoch observation values (Epoch: 2025-06-30T19:48:36.729Z)
Latitude
-0.00008°
Longitude
3.56673°
Altitude
448.134 km
Speed
7.645 km/s
True Right ascension
14h 39m 23s
True Declination
0° 00' 00"
Sunlit
Object was in full shadow at epoch
Visualization orbit readout
Latitude
33.79436°
Longitude
151.09023°
Altitude
448.916 km
Speed
7.648 km/s
Apparent Right ascension
04h 00m 30s
Apparent Declination
-3° 09' 26"
Sunlit
Object is in daylight
Visualization observer readout
Local Sidereal Time
20:29:55
Azimuth
77.489° E
Elevation
-19.284°
Doppler factor
1
Orbital elements
Apogee altitude
448.2 km
Perigee altitude
446.698 km
Semi-major axis
6,825.586 km
Eccentricity
0.00011
Inclination
53.1578°
RAAN
219.8495°
Arg. of periapsis
93.0917°
True anomaly
Unknown
Mean anomaly
267.0213°
Eccentric anomaly
Unknown
Mean motion
3.84887 °/min
Orbital period
93.53 mins
BSTAR
0.00051284
Loading maneuver chart data...
Loading SW <> Apogee altitude chart data...
Loading historical data...
Loading historical data...
Loading historical data...
Loading historical data...
Loading historical data...
Loading historical data...
Loading historical data...

STARLINK-32695 Visibility forecast

Observer location: undefined°, undefined°

Span
Click to sort rows by Start time (UTC) header in descending order
Start Az.
Max El. time (UTC)
Max El. Az.
Max El.
End time (UTC)
End Az.
5 mins2025-07-01 11:53:43.774Z323.943° NNW2025-07-01 11:55:43.774Z54.215° ENE40.888°2025-07-01 11:58:43.774Z118.243° SE
5 mins2025-07-02 04:42:43.774Z203.266° SW2025-07-02 04:44:43.774Z122.087° SE38.265°2025-07-02 04:47:43.774Z59.417° ENE
4 mins2025-07-02 06:20:43.774Z301.467° NW2025-07-02 06:21:43.774Z325.186° NNW20.63°2025-07-02 06:24:43.774Z25.927° NE
|